Location: Unspecified
(41.1210°N, 0.0000°E)
Time: 03:58:30
(UTC+00:00)

Burner II No. 8 - Visible Passes

Search period start: 04 April 2026 00:00
Search period end: 14 April 2026 00:00
Orbit: 767 x 810 km, 98.8° (Epoch: 29 March)

Date Brightness Start Highest point End Pass type
(mag) Time Alt. Az. Time Alt. Az. Time Alt. Az.
4 Apr 9.7 01:48:18 21° ENE 01:48:34 21° ENE 01:52:20 10° NNE visible
4 Apr 8.2 03:28:58 39° WNW 03:28:58 39° WNW 03:32:34 10° NNW visible
5 Apr 10.3 01:17:41 11° ENE 01:18:57 11° ENE 01:20:36 10° NE visible
5 Apr 7.7 02:58:21 65° N 02:58:21 65° N 03:02:42 10° NNW visible
6 Apr 8.4 02:27:44 46° ENE 02:27:44 46° ENE 02:32:30 10° N visible
6 Apr 8.9 04:08:24 19° WNW 04:08:24 19° WNW 04:11:04 10° NW visible
7 Apr 9.4 01:57:06 24° ENE 01:57:50 25° ENE 02:01:57 10° N visible
7 Apr 8.1 03:37:46 37° WNW 03:37:46 37° WNW 03:41:49 10° NNW visible
8 Apr 10.1 01:26:29 12° E 01:28:11 14° ENE 01:30:44 10° NNE visible
8 Apr 7.4 03:07:09 75° WNW 03:07:09 75° WNW 03:12:04 10° NNW visible
9 Apr 8.0 02:36:31 54° E 02:36:57 56° ENE 02:41:57 10° N visible
9 Apr 9.0 04:17:12 17° W 04:17:12 17° W 04:20:00 10° NW visible
10 Apr 9.2 02:05:54 27° E 02:07:06 30° ENE 02:11:31 10° N visible
10 Apr 8.2 03:46:34 32° W 03:46:34 32° W 03:51:01 10° NNW visible
11 Apr 10.0 01:35:17 13° E 01:37:25 17° ENE 01:40:35 10° NNE visible
11 Apr 7.4 03:15:57 62° WSW 03:16:17 63° WSW 03:21:23 10° NNW visible
12 Apr 7.7 02:45:20 55° SE 02:46:16 68° ENE 02:51:23 10° N visible
12 Apr 9.1 04:26:00 14° W 04:26:10 14° W 04:28:46 10° WNW visible
13 Apr 8.9 02:14:42 28° ESE 02:16:23 36° ENE 02:21:04 10° N visible
13 Apr 8.4 03:55:23 26° WSW 03:55:51 27° W 04:00:10 10° NW visible
